Regional Weather Roundup
Issued by NWS

Home | Current Version | Previous Version | Graphics & Text | Print | Product List | Glossary Off
Versions: 1 2 3 4 5 6 7 8 9 10 11 12 13 14 15 16 17 18 19 20 21 22 23 24 25 26 27 28 29 30 31 32 33 34 35 36 37 38 39 40 41 42 43 44 45 46 47 48 49 50

000
ASUS43 KMKX 030511
RWRWI

WISCONSIN REGIONAL WEATHER ROUNDUP
NATIONAL WEATHER SERVICE MILWAUKEE/SULLIVAN WI
1200 AM CDT MON AUG 03 2015

NOTE: "FAIR" INDICATES FEW OR NO CLOUDS BELOW 12,000 FEET WITH NO
SIGNIFICANT WEATHER AND/OR OBSTRUCTIONS TO VISIBILITY.

WIZ001-002-006>008-014>016-023>028-030600-
NORTHWEST WISCONSIN

CITY           SKY/WX    TMP DP  RH WIND       PRES   REMARKS
SUPERIOR ARPT  CLOUDY    64  50  60 W5        29.76S
ASHLAND        PTCLDY    56  50  80 SW6       29.75R
HAYWARD        CLEAR     60  49  66 CALM      29.79R
SIREN          CLEAR     58  48  69 W5        29.82R
CUMBERLAND     CLEAR     55  46  71 NW5       29.82R
RICE LAKE      CLEAR     57  49  74 CALM      29.83R
CHETEK         CLEAR     60  51  72 W3        29.81R
LADYSMITH      CLEAR     61  50  67 W7        29.81R
EAU CLAIRE     CLEAR     64  48  56 NW3       29.80R
MENOMONIE      CLEAR     65  47  51 N7        29.82R
NEW RICHMOND   CLEAR     59  51  74 NW5       29.84R
OSCEOLA        CLEAR     58  53  84 CALM      29.86R
$$

WIZ003>005-009-010-017-018-030600-
NORTH CENTRAL WISCONSIN

CITY           SKY/WX    TMP DP  RH WIND       PRES   REMARKS
MANITOWISH WTR MOCLDY    53  53 100 CALM      29.76R
ARBOR VITAE    CLEAR     57  54  87 CALM      29.76R
WOODRUFF       CLEAR     57  54  87 CALM      29.76R
RHINELANDER    FAIR      57  54  89 W6        29.76R
EAGLE RIVER    CLEAR     56  54  91 W5        29.74R
LAND O LAKES   CLEAR     58  51  77 W3        29.75R
PHILLIPS       PTCLDY    58  53  83 CALM      29.77R
TOMAHAWK       PTCLDY    56  52  88 CALM      29.78R
MEDFORD        PTCLDY    59  52  77 NW5       29.79R
MERRILL        NOT AVBL
$$

WIZ029-030-035-036-043>047-030600-
CENTRAL WISCONSIN

CITY           SKY/WX    TMP DP  RH WIND       PRES   REMARKS
WAUSAU         MOCLDY    66  57  72 NW7       29.75R
MOSINEE        PTCLDY    61  57  88 NW5       29.78R
MARSHFIELD     PTCLDY    63  56  78 NW6       29.78R
STEVENS POINT  PTCLDY    63  57  80 CALM      29.76R
WAUPACA        PTCLDY    69  58  69 W5        29.74R
WAUTOMA        CLEAR     69  58  68 NW6       29.75R
WISC RAPIDS    CLEAR     65  56  72 CALM      29.78R
CAMP DOUGLAS   PTCLDY    69  62  78 NW8       29.77R
$$

WIZ011>013-019>022-031-037>040-048>050-030600-
NORTHEAST WISCONSIN

CITY           SKY/WX    TMP DP  RH WIND       PRES   REMARKS
ANTIGO         CLEAR     58  56  94 W6        29.76R
SHAWANO        PTCLDY    65  61  85 W6        29.72R
OCONTO         CLOUDY    63  63 100 CALM      29.70R
STURGEON BAY   CLOUDY    64  59  82 W5        29.71R
GREEN BAY      MOCLDY    64  62  93 W7        29.71R
MANITOWOC      PTCLDY    65  60  84 MISG      29.70R
APPLETON       MOCLDY    63  61  94 NW7       29.73R
CLINTONVILLE   PTCLDY    64  57  77 NW7       29.72R
OSHKOSH        PTCLDY    66  62  87 W5        29.72R
$$

WIZ032>034-041-042-053>061-030600-
SOUTHWEST WISCONSIN

CITY           SKY/WX    TMP DP  RH WIND       PRES   REMARKS
LA CROSSE      MOCLDY    74  59  59 NW15      29.79R
SPARTA         MOCLDY    72  54  53 NW10      29.80R
VIROQUA        CLEAR     68  60  75 NW7       29.80R
BOSCOBEL       PTCLDY    70  64  81 W3        29.77R
PRAIRIE DU CHI CLEAR     73  58  59 NW8       29.77R
PLATTEVILLE    MOCLDY    73  64  73 NW6       29.78R
$$

WIZ056-057-062-063-064-067-068-030600-
SOUTH CENTRAL WISCONSIN

CITY           SKY/WX    TMP DP  RH WIND       PRES   REMARKS
REEDSBURG      PTCLDY    69  61  76 W5        29.76R
BARABOO/DELLS  CLEAR     72  56  57 NW7       29.75R
LONE ROCK      CLEAR     74  60  61 NW7       29.76R
MINERAL POINT  PTCLDY    72  63  73 NW5       29.78R
MADISON        CLEAR     72  59  63 NW6       29.74R
MIDDLETON      CLEAR     68  61  76 NW6       29.76R
WATERTOWN      PTCLDY    64  64 100 CALM      29.73R
MONROE         PTCLDY    73  63  68 NW8       29.76R
JANESVILLE     MOCLDY    72  63  73 NE3       29.73S
$$

WIZ051-052-058>065-066-070>072-030600-
SOUTHEAST WISCONSIN

CITY           SKY/WX    TMP DP  RH WIND       PRES   REMARKS
MILWAUKEE      PTCLDY    69  59  70 NW6       29.70R
WAUKESHA       PTCLDY    64  54  68 CALM      29.73S
MILWAUKEE/TIMM PTCLDY    64  55  72 CALM      29.72S
RACINE         MOCLDY    67  63  87 CALM      29.72R
BURLINGTON     PTCLDY    62  58  86 N3        29.72F
KENOSHA        MOCLDY    67  65  93 CALM      29.73R
FOND DU LAC    PTCLDY    65  63  93 SW5       29.72R
SHEBOYGAN      PTCLDY    63  60  90 NW3       29.70R
WEST BEND      CLOUDY    63  61  94 CALM      29.72R
JUNEAU         MOCLDY    63  62  96 CALM      29.74R
$$

LSZ147-162-030600-
LAKE SUPERIOR

STATION/POSITION TIME  TEMP    WIND        PRES    WAVE
                       AIR SEA DIR/SP/G            HT/PER
                 (UTC) (F)     (DEG/KT/KT) (MB)    (FT/S)
W MID LAKE BUOY  0450   59 56  300/ 10/ 10 1005.2R   1/ 3
DEVILS ISLAND    0500   61     290/  7/  9 1006.9R
PORT WING        0440   65     250/  7/ 10 1007.5R
SAXON HARBOR     0400   68                 1006.4
$$

LMZ867-665-643>646-030600-
LAKE MICHIGAN

STATION/POSITION TIME  TEMP    WIND        PRES    WAVE
                       AIR SEA DIR/SP/G            HT/PER
                 (UTC) (F)     (DEG/KT/KT) (MB)    (FT/S)
CHAMBERS ISLAND  0400   66     230/  3/  7 1004.7R
S GREEN BAY BUOY 0500   66 68  280/ 10/ 12 1006.9R
N MID LAKE BUOY  0450   67 68  270/ 10/ 12 1003.5R   2/ 5
NORTHPORT PIER   0400   65     220/  4/  6 1004.1S
ALGOMA LAKESHORE 0412             CALM       N/A
KEWAUNEE LAKESHO 0400   63     300/  4/  6 1004.4R
SHEBOYGAN LAKESH 0500   67     290/  9/ 11 1005.7R
PORT WASHINGTON  0400   67     310/  5/  7 1006.1R
ATWATER BUOY     0500   59 46  280/  6/  8 1007.1R
MILWAUKEE LAKESH 0400   70     320/  7/  9   N/A
KENOSHA   LAKESH 0500   71     280/  5/  6 1006.4R
$$

TC  - TEMPERATURE IN CELSIUS
VSB - VISIBILITY IN STATUTE MILES
WCI - WIND CHILL INDEX
HX  - HEAT INDEX




USA.gov is the U.S. government's official web portal to all federal, state and local government web resources and services.